Regional Weather Roundup
Issued by NWS

Home | Current Version | Previous Version | Text Only | Print | Product List | Glossary Off
Versions: 1 2 3 4 5 6 7 8 9 10 11 12 13 14 15 16 17 18 19 20 21 22 23 24 25 26 27 28 29 30 31 32 33 34 35 36 37 38 39 40 41 42 43 44 45 46 47 48 49 50

484
ASUS43 KMPX 200901
RWRMN
WEATHER ROUNDUP FOR MINNESOTA
NATIONAL WEATHER SERVICE TWIN CITIES/CHANHASSEN MN
400 AM CDT WED SEP 20 2017


NOTE: "FAIR" INDICATES FEW OR NO CLOUDS BELOW 12,000 FEET WITH NO
SIGNIFICANT WEATHER AND/OR OBSTRUCTIONS TO VISIBILITY. N/A MEANS
CURRENT SKY AND/OR WEATHER CONDITIONS ARE NOT AVAILABLE.

MNZ060>063-068>070-201000-
   Twin Cities Metro

CITY           SKY/WX    TMP DP  RH WIND       PRES   REMARKS
TWIN CITIES    CLOUDY    72  68  87 S13       29.62S
ST PAUL        CLOUDY    69  68  96 SE13      29.63R
CRYSTAL        CLOUDY    69  65  86 S7        29.61S
BLAINE         DRIZZLE   70  70 100 SE8       29.63R
LAKEVILLE      CLOUDY    68  68 100 S9        29.62R
EDEN PRAIRIE   CLOUDY    71  67  87 S9        29.60S
SOUTH ST PAUL  CLOUDY    68  68  99 S9        29.63S THUNDER
LAKE ELMO      TSTM      68  66  94 S10G18    29.66R
$$
MNZ001>005-007-008-013>017-022>024-027-028-201000-
   Northwest Minnesota

CITY           SKY/WX    TMP DP  RH WIND       PRES   REMARKS
BEMIDJI        DRIZZLE   60  59  99 S9        29.53R
HALLOCK        LGT RAIN  63  61  94 SW9       29.40R
ROSEAU         CLOUDY    63  57  82 SW9       29.43R
WARROAD        CLOUDY    61  57  88 S6        29.42R
CROOKSTON      CLOUDY    61  61 100 SW14      29.46R
FOSSTON        CLOUDY    57  57 100 SE7       29.46F
DETROIT LAKES  FOG       63  61  94 SE8       29.50F VSB 3/4
MOORHEAD       CLOUDY    61  57  88 W15       29.54R
PARK RAPIDS    CLOUDY    63  61  93 SE13      29.51F
MAHNOMEN       PTSUNNY   60  60  99 SE9       29.47F
$$
MNZ006-009>011-018-025>026-201000-
   North Central Minnesota

CITY           SKY/WX    TMP DP  RH WIND       PRES   REMARKS
FLAG ISLAND    CLOUDY    61  59  94 SE8       29.36F
INTL FALLS     HVY RAIN  61  60  97 E15       29.53F FOG
WASKISH        CLOUDY    61  61 100 SW9       29.49R
BIG FORK       CLOUDY    61  59  94 E8        29.50F
LONGVILLE      CLOUDY    61  59  94 S7        29.56R
GRAND RAPIDS   CLOUDY    63  62  97 S13       29.60R
CRANE LAKE     HVY RAIN  61  61 100 CALM      29.64R
ORR            RAIN      63  57  82 CALM      29.59F
COOK           TSTM      63  61  94 E7G21     29.58F
WALKER         CLOUDY    60  59  98 SE7       29.53F
$$
MNZ012-019>021-037-201000-
   Northeast Minnesota

CITY           SKY/WX    TMP DP  RH WIND       PRES   REMARKS
DULUTH         TSTM      61  61 100 S6        29.68F
ELY            TSTM      63  57  82 SW20G29   29.75R
HIBBING        LGT RAIN  60  60 100 SE14      29.55F
EVELETH        TSTM      61  59  96 E8        29.61F
DULUTH HARBOR  TSTM      61  59  94 S8        29.68R
TWO HARBORS    CLOUDY    64  61  88 E6        29.65F THUNDER
SILVER BAY     CLOUDY    61  57  88 E10       29.67F
$$
MNZ029>031-032-039>041-046>048-054>057-064-201000-
   West Central Minnesota

CITY           SKY/WX    TMP DP  RH WIND       PRES   REMARKS
FERGUS FALLS   CLOUDY    61  61 100 SW6       29.52R FOG
WHEATON        CLOUDY    63  57  82 W10G16    29.59R
MORRIS         MOCLDY    61  61 100 SE7       29.53F FOG
ALEXANDRIA     PTCLDY    59  59 100 S3        29.55F
ELBOW LAKE     FAIR      61  61 100 CALM      29.53F
WADENA         MOCLDY    61  61 100 S8        29.54S
GLENWOOD       PTCLDY    57  57 100 S5        29.56F
APPLETON       PTCLDY    63  59  88 S5        29.53F
BENSON         CLEAR     59  57  94 S6        29.56F FOG
ORTONVILLE     PTCLDY    61  57  88 W8        29.59R
MADISON        CLOUDY    61  61 100 SW7       29.58R
WILLMAR        FAIR      61  61 100 CALM      29.58F
$$
MNZ033>034-036-042>043-049>051-058-059-201000-
   Central Minnesota

CITY           SKY/WX    TMP DP  RH WIND       PRES   REMARKS
ST CLOUD       CLOUDY    62  62 100 S3        29.60R
SAUK CENTRE    FAIR      58  57  97 SE5       29.57S
PAYNESVILLE    CLOUDY    62  62  99 CALM      29.59R
AITKIN         RAIN      61  57  88 W5        29.54F
PINE RIVER     CLOUDY    57  55  94 SE5       29.60F
BRAINERD       LGT RAIN  61  59  93 S9        29.55F
STAPLES        MOCLDY    57  57 100 S8        29.55F
LONG PRAIRIE   FAIR      57  55  94 SE5       29.56F
LITTLE FALLS   CLOUDY    59  57  94 S5        29.58R
LITCHFIELD     PTCLDY    64  64 100 CALM      29.60R
BUFFALO        CLOUDY    68  64  85 CALM      29.61R
MAPLE LAKE     CLOUDY    65  64  97 CALM      29.61R
HUTCHINSON     CLOUDY    65  64  96 CALM      29.60R
$$
MNZ037-044-045-052-053-201000-
   East Central Minnesota

CITY           SKY/WX    TMP DP  RH WIND       PRES   REMARKS
PRINCETON      CLOUDY    64  63  94 E3        29.61R
MORA           CLOUDY    59  57  94 SE5       29.65R
CAMBRIDGE      CLOUDY    66  59  77 E3        29.62F
RUSH CITY      CLOUDY    63  61  94 CALM      29.66S
MOOSE LAKE     CLOUDY    61  59  94 SE3       29.59F
HINCKLEY       CLOUDY    63  63 100 SE8       29.67R
CLOQUET        CLOUDY    61  57  88 S6        29.67R
MCGREGOR       CLOUDY    61  59  94 SE5       29.55F
$$
MNZ071>073-080-081-089-090-097-098-201000-
   Southwest Minnesota

CITY           SKY/WX    TMP DP  RH WIND       PRES   REMARKS
MONTEVIDEO     CLEAR     61  57  88 W5        29.57S
GRANITE FALLS  CLOUDY    63  61  93 S5        29.59F
CANBY          CLOUDY    61  56  85 SW6       29.60S
MARSHALL       CLOUDY    61  56  83 SW7       29.60F
REDWOOD FALLS  CLOUDY    64  60  87 SW3       29.59S
OLIVIA         CLOUDY    61  59  94 SW5       29.58S
PIPESTONE      CLOUDY    64  55  72 CALM      29.64R
WORTHINGTON    CLOUDY    61  58  90 CALM      29.66F
JACKSON        CLOUDY    61  59  94 CALM      29.66S
TRACY          CLOUDY    62  59  90 SW5       29.62F
SLAYTON        CLOUDY    62  57  83 CALM      29.65F
$$
MNZ065>067-074>077-082>085-091>093-201000-
   South Central Minnesota

CITY           SKY/WX    TMP DP  RH WIND       PRES   REMARKS
MANKATO        CLOUDY    71  66  84 S7        29.62R
NEW ULM        PTCLDY    63  63 100 SW5       29.62R
ST JAMES       CLOUDY    64  63  94 SW7       29.64S
FAIRMONT       MOCLDY    68  63  84 W6        29.65R
GLENCOE        MOCLDY    68  66  94 SW3       29.60R
FARIBAULT      CLOUDY    72  66  83 S14G22    29.64R
OWATONNA       PTCLDY    72  66  83 S14G26    29.65R
WASECA         CLOUDY    72  64  78 S13G24    29.65S
ALBERT LEA     CLOUDY    73  66  78 S12G17    29.67R
$$
MNZ078>079-086>088-094>096-201000-
   Southeast Minnesota

CITY           SKY/WX    TMP DP  RH WIND       PRES   REMARKS
ROCHESTER      CLOUDY    69  64  84 S20G25    29.67F
RED WING       MOCLDY    73  63  68 S16G25    29.64R
STANTON        CLOUDY    73  65  74 S14G21    29.63R
DODGE CENTER   PTCLDY    70  63  78 S17G28    29.66R
WINONA         CLOUDY    70  63  78 SE10G17   29.70F
AUSTIN         PTCLDY    70  63  78 S12       29.67R
PRESTON        PTCLDY    67  62  85 SE18G25   29.71F
$$
ABBREVIATIONS USED IN REMARKS
   TC - TEMPERATURES IN CELSIUS
  WCI - WIND CHILL INDEX
   HX - HEAT INDEX
  VSB - VISIBILITY
$$




USA.gov is the U.S. government's official web portal to all federal, state and local government web resources and services.